TimeEST,TemperatureF,Dew PointF,Humidity,Sea Level PressureIn,VisibilityMPH,Wind Direction,Wind SpeedMPH,Gust SpeedMPH,PrecipitationIn,Events,Conditions,WindDirDegrees,DateUTC
12:54 AM,42.1,25.0,51,30.17,10.0,NNW,13.8,21.9,N/A,,Clear,340,2013-03-08 05:54:00
1:54 AM,42.1,24.1,49,30.16,10.0,NNW,15.0,-,N/A,,Clear,330,2013-03-08 06:54:00
2:54 AM,39.9,24.1,53,30.15,10.0,NW,11.5,-,N/A,,Clear,310,2013-03-08 07:54:00
3:54 AM,37.0,25.0,62,30.14,10.0,WNW,9.2,-,N/A,,Clear,300,2013-03-08 08:54:00
4:54 AM,36.0,25.0,64,30.16,10.0,WNW,9.2,-,N/A,,Clear,300,2013-03-08 09:54:00
5:54 AM,36.0,25.0,64,30.17,10.0,NW,8.1,-,N/A,,Clear,320,2013-03-08 10:54:00
6:54 AM,36.0,25.0,64,30.18,10.0,NW,10.4,-,N/A,,Clear,320,2013-03-08 11:54:00
7:54 AM,41.0,26.1,55,30.20,10.0,NNW,12.7,21.9,N/A,,Clear,340,2013-03-08 12:54:00
8:54 AM,44.1,26.1,49,30.19,10.0,NNW,17.3,32.2,N/A,,Clear,340,2013-03-08 13:54:00
9:54 AM,46.9,25.0,42,30.19,10.0,NNW,18.4,26.5,N/A,,Clear,330,2013-03-08 14:54:00
10:54 AM,48.0,24.1,39,30.17,10.0,NW,24.2,31.1,N/A,,Partly Cloudy,320,2013-03-08 15:54:00
11:54 AM,50.0,23.0,35,30.14,10.0,NNW,25.3,31.1,N/A,,Clear,330,2013-03-08 16:54:00
12:54 PM,52.0,23.0,32,30.11,10.0,NNW,24.2,32.2,N/A,,Partly Cloudy,330,2013-03-08 17:54:00
1:54 PM,53.1,23.0,31,30.09,10.0,NNW,23.0,31.1,N/A,,Clear,340,2013-03-08 18:54:00
2:54 PM,54.0,24.1,31,30.09,10.0,NNW,21.9,29.9,N/A,,Clear,330,2013-03-08 19:54:00
3:54 PM,54.0,24.1,31,30.09,10.0,North,20.7,27.6,N/A,,Clear,350,2013-03-08 20:54:00
4:54 PM,54.0,25.0,33,30.11,10.0,NNW,15.0,-,N/A,,Clear,340,2013-03-08 21:54:00
5:54 PM,52.0,27.0,38,30.13,10.0,NNW,13.8,-,N/A,,Clear,340,2013-03-08 22:54:00
6:54 PM,48.9,28.0,44,30.15,10.0,NNW,9.2,-,N/A,,Clear,340,2013-03-08 23:54:00
7:54 PM,48.0,28.0,46,30.16,10.0,NNW,8.1,-,N/A,,Clear,330,2013-03-09 00:54:00
8:54 PM,46.9,28.0,48,30.18,10.0,North,12.7,-,N/A,,Clear,350,2013-03-09 01:54:00
9:54 PM,46.9,27.0,46,30.19,10.0,North,16.1,-,N/A,,Clear,360,2013-03-09 02:54:00
10:54 PM,46.0,27.0,47,30.20,10.0,North,12.7,-,N/A,,Clear,350,2013-03-09 03:54:00
11:54 PM,44.1,28.0,53,30.21,10.0,NNW,11.5,-,N/A,,Clear,340,2013-03-09 04:54:00